User: anonymous   Login
Location: Churchill
(58.7670°N, 94.1670°W)
Time: 02:57:31
(UTC-05:00)
Language:

Cosmos 2142 Rocket - Orbit

View from above orbital plane
View from above orbital plane
View from above satellite
View from above satellite

Ground track
Ground track

The orbit data is extracted from the following two-line orbital elements,

1 21231U 91029B   16237.22437359  .00000037  00000-0  22914-4 0  9996
2 21231  82.9551 328.6383 0034497 341.9357  46.6673 13.75717741272953
Epoch (UTC): 24 August 2016 05:23:05
Eccentricity: 0.0034497
inclination: 82.9551°
perigee height: 954 km
apogee height: 1004 km
right ascension of ascending node: 328.6383°
argument of perigee: 341.9357°
revolutions per day: 13.75717741
mean anomaly at epoch: 46.6673°
orbit number at epoch: 27295

The dashed part of the orbit path shows where the satellite is in the earth's shadow,  

DLR